Погода Алматы

Поиск расширенной информации на нашем сайте:

Полезная информация:

Новости сайта



02.01.2020
Опубликован Долгосрочный прогноз погоды по городам России и ближнего зарубежья на январь 2020 года.
Карты: Прогноз на январь и февраль 2020 года, Сравнение прогнозируемой аномалии приземной температуры воздуха на январь 2020 года по разным моделям.




Погода Алматы - сегодня

Время (UTC), дата Ветер
(°,м/с) 
Видим.   Явления Облачность Т
(°С)
Тd
(°С)
f(%) Тe
(°С)
Pmin
(гПа)
dP
(гПа)
Po
(мм)
O2
(г/м3)
Тmin Tmax R s Состояние
почвы
09 04.06.20 250 (З) 20000 м    3/3 1000 м 
[Cu hum]
+33.9 +9.9 23 +37  999  -1.5  683  243           
12 04.06.20 тихо ()   20000 м    4/3 1000 м верхняя 
[Cu med, cong|Ci fib]
+32.1 +7.3 21 +32  999  -0.5  682  245           
15 04.06.20 270 (З) 20000 м    3/3 1000 м 
[Cu med, cong]
+27.7 +8.5 30 +29  1000.7  0.3  683  248    +34.5       
18 04.06.20 020 (С) н/о    9/6 1000 м кучево-дожд., средняя 
[Cb cap|Ac trans]
+29 +8.2 27 +30  1000.9  0.6  683  247    +34.5       
21 04.06.20 220 (ЮЗ) н/о    8/3 1000 м средняя, верхняя 
[Cu med, cong|Ac trans|Ci fib]
+28.8 +7.9 27 +29  999.5  -1.3  682  247           
00 05.06.20 200 (Ю) 6{08}  20000 м    8/0 кучево-дожд., средняя 
[Cb cap|Ac trans]
+28 +7.7 28 +28  1001.3  1.3  683  248           
03 05.06.20 050 (СВ) 20000 м    10/8 600 м кучево-дожд., средняя, верхняя 
[Cb cap|Ac As|Ci fib]
+22.6 +13.1 55 +30  1006.9  3.7  686  253           
06 05.06.20 030 (СВ) 10 км  в посл. час гроза{ливн. осадки}  10/10 600 м кучево-дожд. 
[Cb cap]
+17.4 +14.2 81 +29  1012.1  3.2  688  258  +22.6         
09 05.06.20 190 (Ю) 10 км  в посл. час ливневой дождь  10/10 600 м кучево-дожд. 
[Cb cap]
+17.2 +13.6 79 +28  1013.2  0.9  689  258           
12 05.06.20 тихо ()   10 км  {ливн. осадки}  10/8 600 м кучево-дожд., средняя, верхняя 
[Cb cap|Ac As|Ci]
+17.9 +14 78 +27  1012.7  -0.2  689  257           
15 05.06.20 тихо ()   10 км    10/8 600 м кучево-дожд., средняя 
[Cb cap|Ac trans]
+18.4 +14 76 +28  1012.7  0.2  689  257    +22.6     
18 05.06.20 030 (СВ) н/о    10/0 верхняя 
[Ci]
+17.4 +11.6 69 +24  1013.7  0.5  689  259    +22.6     
21 05.06.20 080 (В) н/о    10/8 600 м кучево-дожд., средняя 
[Cb cap|Ac As]
+15.8 +4.3 46 +17  1014.5  689  262           
00 06.06.20 060 (СВ) 1{08}  10 км    10/8 600 м кучево-дожд., средняя 
[Cb cap|Ac trans]
+14.3 +4 50 +16  1016.3  1.1  690  263           
03 06.06.20 010 (С) 10 км    10/6 600 м кучево-дожд., средняя, верхняя 
[Cb cap|Ac cast|Ci]
+16.8 -0.6 31 +18  1016.7  1.1  691  262           
06 06.06.20 080 (В) 10 км    4/1 600 м кучево-дожд., средняя, верхняя 
[Cb cap|Ac cast|Ci fib]
+21 +2.5 29 +21  1014.8  -0.3  691  258  +14.3         
09 06.06.20 020 (С) 10 км    1/1 1000 м 
[Cu med, cong]
+22.2 +3.1 29 +22  1013.4  -1  690  256           
12 06.06.20 020 (С) 10 км    1/1 1000 м 
[Cu hum]
+21.6 +1.7 27 +22  1013.1  -0.4  690  257           
15 06.06.20 160 (Ю) 10 км    3/0 верхняя 
[Ci fib]
+18.7 +4.4 39 +20  1014.9  0.8  690  259    +23.3       
18 06.06.20 тихо ()   н/о    ясно 
+14.6 +3.1 46 +15  1016.6  0.2  690  263    +23.3       
21 06.06.20 170 (Ю) н/о    ясно 
+13.4 +1.6 45 +15  1015.9  -1.1  690  264           
00 07.06.20 тихо () {04}  20000 м    6/0 верхняя 
[Ci fib]
+11.7 +2.7 54 +12  1017  0.5  690  266           
03 07.06.20 110 (В) 20000 м    9/4 1000 м средняя, верхняя 
[Cu med, cong|Ac trans|Ci fib]
+18.1 +3.8 39 +20  1014  -0.6  689  260           
06 07.06.20 230 (ЮЗ) 20000 м    9/8 1000 м средняя, верхняя 
[Cu med, cong|Ac trans|Ci fib]
+21.2 +2.3 29 +21  1013  689  257  +11.2         
09 07.06.20 210 (ЮЗ) 20000 м    9/4 1000 м средняя, верхняя 
[Cu hum|Ac trans|Ci fib]
+22.2 +4 30 +22  1011.6  -1  689  256           
Время (UTC), дата Ветер
(°,м/с) 
Видим.   Явления Облачность Т
(°С)
Тd
(°С)
f(%) Тe
(°С)
Pmin
(гПа)
dP
(гПа)
Po
(мм)
O2
(г/м3)
Тmin Tmax R s Состояние
почвы

Для получения пояснительной информации подведите курсор к названию столбца.

ПОГОДА Алматы - архив

Всё, что Вы хотите узнать о погоде Алматы - удобно и подробно!

Выберите нужную дату (начиная с 1 января 2019* года) и нажмите кнопку "Найти".
Будут отображены архивные сводки погоды по пункту Алматы, начиная с указанной даты.


Отображать данные в формате CSV (для использования в таблицах Excel)


Внимание! Наш архив погоды предназначен исключительно для личного некоммерческого использования в познавательных целях. Если Вам необходимы официальные справки о состоянии погоды (для производственных, юридических, коммерческих и т.п. целей), обращайтесь в органы Росгидромета.

*Примечание: данная дата относится к архиву по метеостанциям СССР (Россия, СНГ, Балтия).
Архив по метеостанциям Зарубежной Европы и Азии (кроме Китая) хранится 10 дней, по другим регионам земного шара (Китай, Африка, Америка, Австралия, Океания) - 1 день.

Алматы - район местоположения метеостанции


Название, широта, долгота, высота метеостанции:
Алматы (город) 43.2°ш. 76.9°д. 851 м над ур. моря [Казахстан]

Дополнительная информация

В oтличие oт бoльшинства пoгoдных сайтoв мы публикуем пoдрoбную метеoинфoрмацию в детальнoм прoфессиoнальнoм фoрмате.

Характеристики температуры и влажнoсти вoздуха измеряются на высoте 2 м в тени вдали oт зданий и деревьев.
Скoрoсть ветра измеряется на высoте 10 м (на урoвне рoста челoвека скoрoсть ветра ниже в 1.5-2 раза). Если метеoстанция нахoдится в гoрoде или в лесу, тo скoрoсть ветра занижена на 2-4 м/с пo сравнению с oткрытым местoм. Скoрoсть ветра над акватoриями крупных рек и oзёр, а также на вершинах хoлмoв на 2-5 м/с выше, чем в oбычных услoвиях.
Атмoсфернoе давление в разных тoчках местнoсти мoжет значительнo oтличаться oт давления на метеoстанции, в зависимoсти oт услoвий рельефа (при пoдъёме на 10 м давление пoнижается примернo на 1 мм рт.ст.).